CZ-6A DEB, 61835

Orbit data source: Space-Track

CZ-6A DEB, 61835 is space debris in LEO originally from a launch on Tue, 06 Aug 2024 UTC launched from the Taiyaun Space Center, China (TSC). Debris objects in space refer to the collection of defunct objects orbiting the Earth. Examples of debris include non-operational satellites, rocket bodies, and fragments generated from explosions, collisions, or faulty payload assembly.

Loading next visibility...
Identifier
61835, 2024-140ADB
Orbit
LEO
Country
Flag of CNCN / PRC
Related business
Manufacturer
SAST
Mission
Spacecraft
Bus & Motor
Unknown
Mass
Unknown
Launch date (UTC)
2024-08-06 (2 years ago)
Launch vehicle
Unknown
Launch site
Taiyaun Space Center, China (TSC)
Object type
Payload
Rocket body
Debris
Shape & HBR
Unknown shape, 0.1 m
Radar Cross Section
Medium (>0.1 m² and <1 m²)

Expand to show TLE details & history
Last TLE update: 14 hours ago

TLE from 14 hours ago
0 CZ-6A DEB
1 61835U 24140ADB 26171.26545970  .00002381  00000-0  93660-3 0  9990
2 61835  88.9978 273.3742 0033552 177.1581 182.9811 14.28660765 91386
Epoch: 2026-06-20T06:22Z
TLE epoch observation values (Epoch: 2026-06-20T06:22:15.718Z)
Latitude
-0.00001°
Longitude
-90.67385°
Altitude
823.321 km
Speed
7.429 km/s
True Right ascension
18h 13m 29s
True Declination
0° 00' 00"
Sunlit
Object was in full shadow at epoch
Visualization orbit readout
Latitude
Unknown
Longitude
Unknown
Altitude
Unknown
Speed
Unknown
Apparent Right ascension
Unknown
Apparent Declination
Unknown
Sunlit
N/A
Visualization observer readout
Local Sidereal Time
07:19:48
Azimuth
Unknown
Elevation
Unknown
Doppler factor
Unknown
Orbital elements
Apogee altitude
817.211 km
Perigee altitude
769.089 km
Semi-major axis
7,171.287 km
Eccentricity
0.00336
Inclination
88.9978°
RAAN
273.3742°
Arg. of periapsis
177.1581°
True anomaly
182.96119°
Mean anomaly
182.9811°
Eccentric anomaly
182.97114°
Mean motion
3.57394 °/min
Orbital period
100.73 mins
BSTAR
0.0009366
Loading maneuver chart data...
Computing Atmospheric mass density...
Loading historical data...
Loading historical data...
Loading historical data...
Loading historical data...
Loading historical data...
Loading historical data...
Loading historical data...

Documentation

Showing up to 5 results
|